Regional Weather Roundup
Issued by NWS

Home | Current Version | Previous Version | Graphics & Text | Print | Product List | Glossary On
Versions: 1 2 3 4 5 6 7 8 9 10 11 12 13 14 15 16 17 18 19 20 21 22 23 24 25 26 27 28 29 30 31 32 33 34 35 36 37 38 39 40 41 42 43 44 45 46 47 48 49 50
000
ASUS43 KOAX 250902
RWRNE

WEATHER ROUNDUP FOR NEBRASKA
NATIONAL WEATHER SERVICE OMAHA NE
400 AM CDT TUE JUL 25 2017

NOTES: SATELLITE DATA IS BEING USED TO AUGMENT CLOUD COVER ABOVE
       12000 FEET.
       "FAIR" INDICATES FEW OR NO CLOUDS BELOW 12,000 FEET WITH NO
       SIGNIFICANT WEATHER AND/OR OBSTRUCTIONS TO VISIBILITY.


NEZ001>004-019>022-054>056-251000-
NEBRASKA PANHANDLE

CITY           SKY/WX    TMP DP  RH WIND       PRES   REMARKS
SCOTTSBLUFF    PTCLDY    80  56  43 SW6       29.94S
ALLIANCE       CLEAR     77  58  51 S15       29.92F
CHADRON        CLEAR     75  53  46 SW8       29.86S
GORDON         FAIR      65  58  79 CALM      29.91F
KIMBALL        CLOUDY    70  58  66 S10       30.03F
SIDNEY         PTCLDY    74  60  61 SW17G24   29.99F
$$

NEZ057>060-069>072-079>082-251000-
SOUTHWEST NEBRASKA

CITY           SKY/WX    TMP DP  RH WIND       PRES   REMARKS
NORTH PLATTE   CLEAR     78  55  44 S6        29.95S
IMPERIAL       CLEAR     74  59  59 S9        29.96F
LEXINGTON      CLEAR     74  58  55 S7        29.97R
MCCOOK         CLEAR     77  58  51 S10       29.96S
OGALLALA       CLEAR     76  61  59 CALM      29.95S
$$

NEZ005>010-023>029-035>040-094-251000-
NORTH CENTRAL NEBRASKA

CITY           SKY/WX    TMP DP  RH WIND       PRES   REMARKS
VALENTINE      CLEAR     74  59  59 SW7       29.89S
BROKEN BOW     CLEAR     68  59  73 E5        29.96S
O`NEILL        CLEAR     74  69  83 S10       29.91S
ORD            CLEAR     75  64  68 S10       29.93S
THEDFORD       CLEAR     81  56  42 S14       29.93S
$$

NEZ041-046>049-061>064-073>077-083>087-251000-
SOUTH CENTRAL NEBRASKA

CITY           SKY/WX    TMP DP  RH WIND       PRES   REMARKS
GRAND ISLAND   CLEAR     74  69  85 S12       29.97R
AURORA         CLEAR     74  72  91 S10       29.97S
HASTINGS       CLEAR     73  66  78 S6        29.99S
HEBRON         PTCLDY    77  71  84 S8        29.98S
HOLDREGE       CLEAR     71  60  68 S7        29.98S
KEARNEY        CLEAR     73  65  75 S12       29.98R
YORK           CLEAR     73  73 100 S10       29.97S
$$

NEZ011>018-030>034-042>045-251000-
NORTHEAST NEBRASKA

CITY           SKY/WX    TMP DP  RH WIND       PRES   REMARKS
NORFOLK        PTCLDY    75  69  81 S14       29.93R
ALBION         CLEAR     74  71  90 S7        29.95S
BLAIR          PTCLDY    74  67  78 S15G21    29.98S
COLUMBUS       CLEAR     74  70  87 S10       29.95S
FREMONT        PTCLDY    73  66  78 SE10      29.98R
TEKAMAH        PTCLDY    72  65  78 S12       29.96F
WAYNE          PTCLDY    72  72  99 S12       29.94R
$$

NEZ050>053-065>068-078-088>093-251000-
SOUTHEAST NEBRASKA

CITY           SKY/WX    TMP DP  RH WIND       PRES   REMARKS
LINCOLN        PTCLDY    72  67  84 S9        29.97F
OMAHA EPPLEY   PTCLDY    75  65  70 SE14      29.99R
BEATRICE       CLEAR     74  69  83 S9        29.99S
FALLS CITY     PTCLDY    70  67  90 SE7       30.02R
NEBRASKA CITY  PTCLDY    71  71  99 S12       30.01S
PLATTSMOUTH    MOCLDY    72  65  80 SE13      30.00S
$$

NEZ044-045-051>053-067-251000-
OMAHA AREA

CITY           SKY/WX    TMP DP  RH WIND       PRES   REMARKS
OMAHA EPPLEY   PTCLDY    75  65  70 SE14      29.99R
BLAIR          PTCLDY    74  67  78 S15G21    29.98S
FREMONT        PTCLDY    73  66  78 SE10      29.98R
MILLARD        MOCLDY    74  69  82 SE9       29.99R
OFFUTT AFB     MOCLDY    72  65  79 E9        29.99S
PLATTSMOUTH    MOCLDY    72  65  80 SE13      30.00S
WAHOO          FAIR      72  66  83 SE9       29.97S
$$




USA.gov is the U.S. government's official web portal to all federal, state and local government web resources and services.